| time (UTC) | temp F | wind direction | speed knots | gust knots | rain 1hr in | rain 24hr in | rain mn in | humidity % | barometer mb |
| 20260510190606 | 84 | 192 | 0.0 | 3.5 | 0.00 | 0.00 | 0.00 | 28 | 1013.4 |
| 20260510190009 | 84 | 193 | 0.9 | 5.2 | 0.00 | 0.00 | 0.00 | 30 | 1013.5 |
| 20260510185509 | 84 | 161 | 0.0 | 3.5 | 0.00 | 0.00 | 0.00 | 29 | 1013.5 |
| 20260510185103 | 84 | 186 | 0.0 | 3.5 | 0.00 | 0.00 | 0.00 | 29 | 1013.6 |
| 20260510184512 | 84 | 230 | 0.0 | 3.5 | 0.00 | 0.00 | 0.00 | 32 | 1013.6 |
| 20260510184009 | 84 | 202 | 0.0 | 2.6 | 0.00 | 0.00 | 0.00 | 30 | 1013.6 |
| 20260510183603 | 84 | 201 | 0.0 | 5.2 | 0.00 | 0.00 | 0.00 | 27 | 1013.6 |
| 20260510183002 | 84 | 191 | 1.7 | 5.2 | 0.00 | 0.00 | 0.00 | 29 | 1013.6 |
| 20260510182509 | 84 | 204 | 0.0 | 3.5 | 0.00 | 0.00 | 0.00 | 32 | 1013.7 |
| 20260510182103 | 84 | 152 | 0.9 | 4.3 | 0.00 | 0.00 | 0.00 | 32 | 1013.6 |
| 20260510181506 | 83 | 4 | 1.7 | 4.3 | 0.00 | 0.00 | 0.00 | 32 | 1013.7 |
| 20260510181010 | 83 | 195 | 1.7 | 4.3 | 0.00 | 0.00 | 0.00 | 32 | 1013.9 |
| 20260510180603 | 83 | 202 | 0.0 | 0.0 | 0.00 | 0.00 | 0.00 | 32 | 1013.9 |
| 20260510180003 | 83 | 38 | 0.0 | 0.0 | 0.00 | 0.00 | 0.00 | 33 | 1014.1 |
| 20260510175510 | 83 | 200 | 0.0 | 0.0 | 0.00 | 0.00 | 0.00 | 29 | 1014.0 |
| 20260510175103 | 83 | 164 | 0.0 | 0.0 | 0.00 | 0.00 | 0.00 | 32 | 1014.0 |
| 20260510174504 | 83 | 297 | 0.0 | 0.0 | 0.00 | 0.00 | 0.00 | 31 | 1014.1 |
| 20260510174010 | 83 | 212 | 0.0 | 0.0 | 0.00 | 0.00 | 0.00 | 29 | 1014.1 |
| 20260510173603 | 82 | 349 | 0.0 | 0.0 | 0.00 | 0.00 | 0.00 | 32 | 1014.1 |
| 20260510173003 | 82 | 187 | 0.0 | 0.0 | 0.00 | 0.00 | 0.00 | 32 | 1014.2 |
| 20260510172509 | 82 | 187 | 0.0 | 0.0 | 0.00 | 0.00 | 0.00 | 32 | 1014.2 |
| 20260510172103 | 82 | 188 | 0.0 | 0.0 | 0.00 | 0.00 | 0.00 | 37 | 1014.2 |
| 20260510171504 | 82 | 197 | 0.0 | 0.0 | 0.00 | 0.00 | 0.00 | 33 | 1014.3 |
| 20260510171011 | 82 | 186 | 0.0 | 0.9 | 0.00 | 0.00 | 0.00 | 36 | 1014.4 |
| 20260510170603 | 81 | 188 | 0.0 | 0.9 | 0.00 | 0.00 | 0.00 | 34 | 1014.3 |
| 20260510170003 | 81 | 196 | 0.0 | 0.0 | 0.00 | 0.00 | 0.00 | 38 | 1014.3 |
| 20260510165509 | 81 | 28 | 0.0 | 0.0 | 0.00 | 0.00 | 0.00 | 37 | 1014.3 |
| 20260510165103 | 80 | 217 | 0.0 | 0.0 | 0.00 | 0.00 | 0.00 | 34 | 1014.4 |
| 20260510164503 | 80 | 220 | 0.0 | 0.0 | 0.00 | 0.00 | 0.00 | 33 | 1014.4 |
| 20260510164009 | 81 | 174 | 0.0 | 0.0 | 0.00 | 0.00 | 0.00 | 34 | 1014.4 |
| 20260510163603 | 82 | 228 | 0.0 | 0.0 | 0.00 | 0.00 | 0.00 | 32 | 1014.5 |
| 20260510163004 | 81 | 162 | 0.0 | 0.9 | 0.00 | 0.00 | 0.00 | 44 | 1014.5 |
| 20260510162510 | 81 | 161 | 0.0 | 2.6 | 0.00 | 0.00 | 0.00 | 39 | 1014.6 |
| 20260510162102 | 81 | 94 | 0.0 | 3.5 | 0.00 | 0.00 | 0.00 | 36 | 1014.7 |
| 20260510161503 | 81 | 345 | 0.0 | 3.5 | 0.00 | 0.00 | 0.00 | 39 | 1014.7 |
| 20260510161009 | 80 | 22 | 0.9 | 3.5 | 0.00 | 0.00 | 0.00 | 40 | 1014.7 |
| 20260510160604 | 80 | 305 | 0.0 | 4.3 | 0.00 | 0.00 | 0.00 | 36 | 1014.7 |
| 20260510160003 | 80 | 315 | 0.0 | 4.3 | 0.00 | 0.00 | 0.00 | 34 | 1014.8 |
| 20260510155510 | 80 | 168 | 0.0 | 0.0 | 0.00 | 0.00 | 0.00 | 40 | 1014.7 |
| 20260510155103 | 80 | 143 | 0.0 | 0.0 | 0.00 | 0.00 | 0.00 | 40 | 1014.8 |
| 20260510154504 | 79 | 6 | 0.0 | 4.3 | 0.00 | 0.00 | 0.00 | 42 | 1014.7 |
| 20260510154011 | 79 | 42 | 0.9 | 4.3 | 0.00 | 0.00 | 0.00 | 43 | 1014.8 |
| 20260510153606 | 79 | 349 | 0.0 | 1.7 | 0.00 | 0.00 | 0.00 | 42 | 1014.7 |
| 20260510153005 | 79 | 289 | 0.0 | 2.6 | 0.00 | 0.00 | 0.00 | 46 | 1014.7 |
| 20260510152509 | 78 | 349 | 0.0 | 2.6 | 0.00 | 0.00 | 0.00 | 51 | 1014.8 |
| 20260510152103 | 78 | 296 | 0.0 | 3.5 | 0.00 | 0.00 | 0.00 | 47 | 1014.7 |
| 20260510151503 | 77 | 342 | 0.0 | 5.2 | 0.00 | 0.00 | 0.00 | 49 | 1014.8 |
| 20260510151013 | 76 | 38 | 0.9 | 5.2 | 0.00 | 0.00 | 0.00 | 50 | 1014.8 |
| 20260510150604 | 76 | 18 | 0.0 | 3.5 | 0.00 | 0.00 | 0.00 | 53 | 1014.9 |
| 20260510150003 | 75 | 176 | 0.0 | 4.3 | 0.00 | 0.00 | 0.00 | 49 | 1014.8 |
| 20260510145513 | 74 | 185 | 0.0 | 4.3 | 0.00 | 0.00 | 0.00 | 54 | 1014.9 |
| 20260510145103 | 74 | 161 | 0.9 | 4.3 | 0.00 | 0.00 | 0.00 | 51 | 1015.0 |
| 20260510144503 | 73 | 197 | 0.0 | 4.3 | 0.00 | 0.00 | 0.00 | 54 | 1014.9 |
| 20260510144012 | 72 | 329 | 1.7 | 4.3 | 0.00 | 0.00 | 0.00 | 59 | 1014.9 |
| 20260510143603 | 71 | 167 | 0.0 | 3.5 | 0.00 | 0.00 | 0.00 | 59 | 1014.9 |
| 20260510143006 | 70 | 70 | 0.0 | 4.3 | 0.00 | 0.00 | 0.00 | 62 | 1014.9 |
| 20260510142509 | 69 | 44 | 0.9 | 4.3 | 0.00 | 0.00 | 0.00 | 61 | 1015.0 |
| 20260510142103 | 69 | 29 | 0.0 | 5.2 | 0.00 | 0.00 | 0.00 | 65 | 1015.0 |
| 20260510141503 | 68 | 129 | 0.0 | 1.7 | 0.00 | 0.00 | 0.00 | 69 | 1015.0 |
| 20260510141015 | 67 | 176 | 0.0 | 0.0 | 0.00 | 0.00 | 0.00 | 70 | 1014.9 |
| 20260510140603 | 66 | 40 | 0.0 | 0.9 | 0.00 | 0.00 | 0.00 | 70 | 1014.9 |
| 20260510140003 | 65 | 348 | 0.0 | 0.0 | 0.00 | 0.00 | 0.00 | 75 | 1015.0 |
| 20260510135509 | 64 | 164 | 0.0 | 0.0 | 0.00 | 0.00 | 0.00 | 77 | 1014.9 |
| 20260510135103 | 63 | 136 | 0.0 | 0.9 | 0.00 | 0.00 | 0.00 | 81 | 1014.9 |
| 20260510134504 | 62 | 170 | 0.0 | 0.9 | 0.00 | 0.00 | 0.00 | 86 | 1014.9 |
| 20260510134009 | 62 | 178 | 0.0 | 0.0 | 0.00 | 0.00 | 0.00 | 91 | 1015.0 |
| 20260510133604 | 61 | 352 | 0.0 | 0.0 | 0.00 | 0.00 | 0.00 | 91 | 1015.0 |
| 20260510133008 | 60 | 115 | 0.0 | 0.0 | 0.00 | 0.00 | 0.00 | 96 | 1014.9 |
| 20260510132509 | 60 | 64 | 0.0 | 0.0 | 0.00 | 0.00 | 0.00 | 98 | 1015.0 |
| 20260510132103 | 60 | 84 | 0.0 | 0.0 | 0.00 | 0.00 | 0.00 | 98 | 1015.0 |
| 20260510131504 | 59 | 306 | 0.0 | 0.0 | 0.00 | 0.00 | 0.00 | 98 | 1015.0 |
| 20260510131009 | 59 | 150 | 0.0 | 0.0 | 0.00 | 0.00 | 0.00 | 98 | 1015.0 |
| 20260510130603 | 59 | 150 | 0.0 | 0.0 | 0.00 | 0.00 | 0.00 | 98 | 1014.9 |
| 20260510130003 | 58 | 150 | 0.0 | 0.0 | 0.00 | 0.00 | 0.00 | 98 | 1015.1 |
| 20260510125509 | 58 | 181 | 0.0 | 0.9 | 0.00 | 0.00 | 0.00 | 98 | 1015.1 |
| 20260510125104 | 57 | 181 | 0.0 | 0.9 | 0.00 | 0.00 | 0.00 | 98 | 1015.0 |
| 20260510124504 | 56 | 181 | 0.0 | 0.0 | 0.00 | 0.00 | 0.00 | 98 | 1014.9 |
| 20260510124011 | 56 | 181 | 0.0 | 0.0 | 0.00 | 0.00 | 0.00 | 97 | 1014.9 |
| 20260510123603 | 55 | 181 | 0.0 | 0.0 | 0.00 | 0.00 | 0.00 | 97 | 1014.8 |
| 20260510123005 | 55 | 181 | 0.0 | 0.0 | 0.00 | 0.00 | 0.00 | 97 | 1014.6 |
| 20260510122509 | 54 | 181 | 0.0 | 0.0 | 0.00 | 0.00 | 0.00 | 97 | 1014.5 |
| 20260510122103 | 54 | 181 | 0.0 | 0.0 | 0.00 | 0.00 | 0.00 | 97 | 1014.5 |
| 20260510121503 | 54 | 181 | 0.0 | 0.0 | 0.00 | 0.00 | 0.00 | 97 | 1014.4 |
| 20260510121012 | 53 | 181 | 0.0 | 0.0 | 0.00 | 0.00 | 0.00 | 97 | 1014.2 |
| 20260510120604 | 53 | 181 | 0.0 | 0.0 | 0.00 | 0.00 | 0.00 | 97 | 1014.0 |
| 20260510120002 | 53 | 181 | 0.0 | 0.0 | 0.00 | 0.00 | 0.00 | 97 | 1014.0 |
| 20260510115513 | 53 | 181 | 0.0 | 0.0 | 0.00 | 0.00 | 0.00 | 97 | 1014.0 |
| 20260510115103 | 53 | 181 | 0.0 | 0.0 | 0.00 | 0.00 | 0.00 | 97 | 1013.9 |
| 20260510114503 | 53 | 181 | 0.0 | 0.0 | 0.00 | 0.00 | 0.00 | 97 | 1013.8 |
| 20260510114009 | 52 | 181 | 0.0 | 0.0 | 0.00 | 0.00 | 0.00 | 96 | 1013.7 |
| 20260510113606 | 52 | 181 | 0.0 | 0.0 | 0.00 | 0.00 | 0.00 | 96 | 1013.8 |
| 20260510113004 | 52 | 181 | 0.0 | 0.0 | 0.00 | 0.00 | 0.00 | 96 | 1013.6 |
| 20260510112515 | 52 | 181 | 0.0 | 0.0 | 0.00 | 0.00 | 0.00 | 96 | 1013.5 |
| 20260510112104 | 52 | 181 | 0.0 | 0.0 | 0.00 | 0.00 | 0.00 | 96 | 1013.5 |
| 20260510111502 | 52 | 181 | 0.0 | 0.0 | 0.00 | 0.00 | 0.00 | 96 | 1013.4 |
| 20260510111009 | 52 | 181 | 0.0 | 0.0 | 0.00 | 0.00 | 0.00 | 96 | 1013.3 |
| 20260510110603 | 52 | 181 | 0.0 | 0.0 | 0.00 | 0.00 | 0.00 | 96 | 1013.3 |
| 20260510110007 | 52 | 181 | 0.0 | 0.0 | 0.00 | 0.00 | 0.00 | 96 | 1013.1 |
| 20260510105509 | 52 | 181 | 0.0 | 0.0 | 0.00 | 0.00 | 0.00 | 96 | 1013.0 |
| 20260510105103 | 52 | 181 | 0.0 | 0.0 | 0.00 | 0.00 | 0.00 | 95 | 1013.0 |
| 20260510104504 | 52 | 181 | 0.0 | 0.0 | 0.00 | 0.00 | 0.00 | 95 | 1012.9 |
| 20260510104008 | 52 | 181 | 0.0 | 0.0 | 0.00 | 0.00 | 0.00 | 95 | 1012.8 |
| 20260510103603 | 52 | 181 | 0.0 | 0.0 | 0.00 | 0.00 | 0.00 | 95 | 1012.8 |
| 20260510103003 | 52 | 181 | 0.0 | 0.0 | 0.00 | 0.00 | 0.00 | 95 | 1012.6 |
| 20260510102515 | 52 | 181 | 0.0 | 0.0 | 0.00 | 0.00 | 0.00 | 95 | 1012.6 |
| 20260510102104 | 52 | 181 | 0.0 | 0.0 | 0.00 | 0.00 | 0.00 | 95 | 1012.5 |
| 20260510101503 | 53 | 181 | 0.0 | 0.0 | 0.00 | 0.00 | 0.00 | 95 | 1012.4 |
| 20260510101009 | 53 | 181 | 0.0 | 0.0 | 0.00 | 0.00 | 0.00 | 95 | 1012.3 |
| 20260510100605 | 53 | 181 | 0.0 | 0.0 | 0.00 | 0.00 | 0.00 | 95 | 1012.3 |
| 20260510100005 | 53 | 181 | 0.0 | 0.0 | 0.00 | 0.00 | 0.00 | 95 | 1012.2 |
| 20260510095509 | 53 | 181 | 0.0 | 0.0 | 0.00 | 0.00 | 0.00 | 95 | 1012.1 |
| 20260510095105 | 53 | 181 | 0.0 | 0.0 | 0.00 | 0.00 | 0.00 | 95 | 1012.0 |
| 20260510094504 | 53 | 181 | 0.0 | 0.0 | 0.00 | 0.00 | 0.00 | 95 | 1012.1 |
| 20260510094009 | 53 | 181 | 0.0 | 0.0 | 0.00 | 0.00 | 0.00 | 95 | 1012.1 |
| 20260510093605 | 54 | 181 | 0.0 | 0.0 | 0.00 | 0.00 | 0.00 | 95 | 1012.1 |
| 20260510093003 | 54 | 181 | 0.0 | 0.0 | 0.00 | 0.00 | 0.00 | 95 | 1012.1 |
| 20260510092509 | 54 | 181 | 0.0 | 0.0 | 0.00 | 0.00 | 0.00 | 95 | 1012.0 |
| 20260510092103 | 54 | 181 | 0.0 | 0.0 | 0.00 | 0.00 | 0.00 | 95 | 1012.0 |
| 20260510091503 | 54 | 181 | 0.0 | 0.0 | 0.00 | 0.00 | 0.00 | 95 | 1012.0 |
| 20260510091009 | 54 | 181 | 0.0 | 0.0 | 0.00 | 0.00 | 0.00 | 95 | 1011.9 |
| 20260510090605 | 54 | 181 | 0.0 | 0.0 | 0.00 | 0.00 | 0.00 | 95 | 1011.8 |
| 20260510090003 | 54 | 181 | 0.0 | 0.0 | 0.00 | 0.00 | 0.00 | 95 | 1011.9 |
| 20260510085511 | 54 | 181 | 0.0 | 0.0 | 0.00 | 0.00 | 0.00 | 95 | 1011.8 |
| 20260510085104 | 55 | 181 | 0.0 | 0.0 | 0.00 | 0.00 | 0.00 | 95 | 1011.7 |
| 20260510084505 | 55 | 181 | 0.0 | 0.0 | 0.00 | 0.00 | 0.00 | 95 | 1011.7 |
| 20260510084009 | 55 | 181 | 0.0 | 0.0 | 0.00 | 0.00 | 0.00 | 95 | 1011.7 |
| 20260510083602 | 55 | 181 | 0.0 | 0.0 | 0.00 | 0.00 | 0.00 | 95 | 1011.5 |
| 20260510083003 | 55 | 181 | 0.0 | 0.0 | 0.00 | 0.00 | 0.00 | 95 | 1011.5 |
| 20260510082510 | 55 | 181 | 0.0 | 0.0 | 0.00 | 0.00 | 0.00 | 95 | 1011.6 |
| 20260510082104 | 55 | 181 | 0.0 | 0.0 | 0.00 | 0.00 | 0.00 | 95 | 1011.6 |
| 20260510081504 | 55 | 181 | 0.0 | 0.0 | 0.00 | 0.00 | 0.00 | 95 | 1011.5 |
| 20260510081009 | 55 | 181 | 0.0 | 0.0 | 0.00 | 0.00 | 0.00 | 95 | 1011.4 |
| 20260510080604 | 55 | 181 | 0.0 | 0.0 | 0.00 | 0.00 | 0.00 | 95 | 1011.2 |
| 20260510080004 | 55 | 181 | 0.0 | 0.0 | 0.00 | 0.00 | 0.00 | 95 | 1011.1 |
| 20260510075509 | 55 | 181 | 0.0 | 0.0 | 0.00 | 0.00 | 0.00 | 95 | 1011.2 |
| 20260510075104 | 56 | 181 | 0.0 | 0.0 | 0.00 | 0.00 | 0.00 | 95 | 1011.2 |
| 20260510074503 | 56 | 181 | 0.0 | 0.0 | 0.00 | 0.00 | 0.00 | 95 | 1011.1 |
| 20260510074009 | 56 | 181 | 0.0 | 0.0 | 0.00 | 0.00 | 0.00 | 95 | 1011.1 |
| 20260510073602 | 56 | 181 | 0.0 | 0.0 | 0.00 | 0.00 | 0.00 | 95 | 1011.1 |
| 20260510073004 | 56 | 181 | 0.0 | 0.0 | 0.00 | 0.00 | 0.00 | 95 | 1011.1 |
| 20260510072508 | 56 | 181 | 0.0 | 0.0 | 0.00 | 0.00 | 0.00 | 95 | 1011.1 |
| 20260510072103 | 56 | 181 | 0.0 | 0.0 | 0.00 | 0.00 | 0.00 | 95 | 1011.1 |
| 20260510071504 | 56 | 181 | 0.0 | 0.0 | 0.00 | 0.00 | 0.00 | 95 | 1011.0 |
| 20260510071008 | 56 | 181 | 0.0 | 0.0 | 0.00 | 0.00 | 0.00 | 95 | 1011.0 |
| 20260510070602 | 56 | 181 | 0.0 | 0.0 | 0.00 | 0.00 | 0.00 | 95 | 1011.0 |
| 20260510070003 | 56 | 181 | 0.0 | 0.0 | 0.00 | 0.00 | 0.00 | 95 | 1011.0 |
| 20260510065514 | 56 | 181 | 0.0 | 0.0 | 0.00 | 0.00 | 0.00 | 95 | 1010.9 |
| 20260510065103 | 56 | 181 | 0.0 | 0.0 | 0.00 | 0.00 | 0.00 | 95 | 1010.9 |
| 20260510064502 | 57 | 181 | 0.0 | 0.0 | 0.00 | 0.00 | 0.00 | 95 | 1011.1 |
| 20260510064009 | 57 | 181 | 0.0 | 0.0 | 0.00 | 0.00 | 0.00 | 95 | 1011.1 |
| 20260510063604 | 57 | 181 | 0.0 | 0.0 | 0.00 | 0.00 | 0.00 | 95 | 1011.1 |
| 20260510063003 | 57 | 181 | 0.0 | 0.0 | 0.00 | 0.00 | 0.00 | 95 | 1011.0 |
| 20260510062508 | 57 | 181 | 0.0 | 0.0 | 0.00 | 0.00 | 0.00 | 95 | 1011.0 |
| 20260510062103 | 57 | 181 | 0.0 | 0.0 | 0.00 | 0.00 | 0.00 | 95 | 1010.9 |
| 20260510061505 | 57 | 181 | 0.0 | 0.0 | 0.00 | 0.00 | 0.00 | 95 | 1011.0 |
| 20260510061009 | 57 | 181 | 0.0 | 0.0 | 0.00 | 0.00 | 0.00 | 95 | 1011.1 |
| 20260510060602 | 57 | 181 | 0.0 | 0.0 | 0.00 | 0.00 | 0.00 | 95 | 1011.1 |
| 20260510060004 | 57 | 181 | 0.0 | 0.0 | 0.00 | 0.00 | 0.00 | 95 | 1011.0 |
| 20260510055513 | 57 | 181 | 0.0 | 0.0 | 0.00 | 0.00 | 0.00 | 95 | 1011.0 |
| 20260510055102 | 57 | 181 | 0.0 | 0.0 | 0.00 | 0.00 | 0.00 | 95 | 1010.9 |
| 20260510054503 | 58 | 181 | 0.0 | 0.0 | 0.00 | 0.00 | 0.00 | 94 | 1011.0 |
| 20260510054008 | 58 | 181 | 0.0 | 0.0 | 0.00 | 0.00 | 0.00 | 94 | 1010.9 |
| 20260510053601 | 58 | 181 | 0.0 | 0.0 | 0.00 | 0.00 | 0.00 | 94 | 1011.0 |
| 20260510053002 | 58 | 181 | 0.0 | 0.0 | 0.00 | 0.00 | 0.00 | 94 | 1011.1 |
| 20260510052509 | 58 | 181 | 0.0 | 0.0 | 0.00 | 0.00 | 0.00 | 94 | 1011.2 |
| 20260510052102 | 58 | 181 | 0.0 | 0.0 | 0.00 | 0.00 | 0.00 | 94 | 1011.3 |
| 20260510051505 | 58 | 181 | 0.0 | 0.0 | 0.00 | 0.00 | 0.00 | 94 | 1011.2 |
| 20260510051009 | 58 | 181 | 0.0 | 0.0 | 0.00 | 0.00 | 0.00 | 94 | 1011.2 |
| 20260510050604 | 58 | 181 | 0.0 | 0.0 | 0.00 | 0.00 | 0.00 | 94 | 1011.3 |
| 20260510050003 | 58 | 181 | 0.0 | 0.0 | 0.00 | 0.00 | 0.00 | 94 | 1011.3 |
| 20260510045510 | 58 | 181 | 0.0 | 0.0 | 0.00 | 0.00 | 0.00 | 94 | 1011.4 |
| 20260510045103 | 58 | 181 | 0.0 | 0.0 | 0.00 | 0.00 | 0.00 | 94 | 1011.3 |
| 20260510044502 | 58 | 181 | 0.0 | 0.0 | 0.00 | 0.00 | 0.00 | 94 | 1011.4 |
| 20260510044009 | 58 | 181 | 0.0 | 0.0 | 0.00 | 0.00 | 0.00 | 94 | 1011.4 |
| 20260510043603 | 58 | 181 | 0.0 | 0.0 | 0.00 | 0.00 | 0.00 | 94 | 1011.4 |
| 20260510043003 | 58 | 181 | 0.0 | 0.0 | 0.00 | 0.00 | 0.00 | 94 | 1011.5 |
| 20260510042509 | 58 | 181 | 0.0 | 0.0 | 0.00 | 0.00 | 0.00 | 94 | 1011.4 |
| 20260510042103 | 58 | 181 | 0.0 | 0.0 | 0.00 | 0.00 | 0.00 | 94 | 1011.2 |
| 20260510041503 | 58 | 181 | 0.0 | 0.0 | 0.00 | 0.00 | 0.00 | 94 | 1011.4 |
| 20260510041002 | 59 | 181 | 0.0 | 0.0 | 0.00 | 0.00 | 0.00 | 94 | 1011.4 |
| 20260510040503 | 59 | 181 | 0.0 | 0.0 | 0.00 | 0.00 | 0.00 | 93 | 1011.4 |
| 20260510040010 | 59 | 181 | 0.0 | 0.0 | 0.00 | 0.00 | 0.00 | 93 | 1011.4 |
| 20260510035604 | 59 | 181 | 0.0 | 0.0 | 0.00 | 0.00 | 0.00 | 93 | 1011.3 |
| 20260510035003 | 59 | 181 | 0.0 | 0.0 | 0.00 | 0.00 | 0.00 | 93 | 1011.4 |
| 20260510034509 | 59 | 181 | 0.0 | 0.0 | 0.00 | 0.00 | 0.00 | 93 | 1011.3 |
| 20260510034103 | 59 | 181 | 0.0 | 0.0 | 0.00 | 0.00 | 0.00 | 93 | 1011.4 |
| 20260510033503 | 59 | 181 | 0.0 | 0.0 | 0.00 | 0.00 | 0.00 | 93 | 1011.3 |
| 20260510033008 | 59 | 181 | 0.0 | 0.0 | 0.00 | 0.00 | 0.00 | 93 | 1011.3 |
| 20260510032603 | 59 | 181 | 0.0 | 0.0 | 0.00 | 0.00 | 0.00 | 93 | 1011.4 |
| 20260510032003 | 59 | 181 | 0.0 | 0.0 | 0.00 | 0.00 | 0.00 | 93 | 1011.3 |
| 20260510031509 | 59 | 181 | 0.0 | 0.0 | 0.00 | 0.00 | 0.00 | 92 | 1011.3 |
| 20260510031104 | 59 | 181 | 0.0 | 0.0 | 0.00 | 0.00 | 0.00 | 92 | 1011.3 |
| 20260510030503 | 59 | 181 | 0.0 | 0.0 | 0.00 | 0.00 | 0.00 | 92 | 1011.4 |
| 20260510030009 | 59 | 181 | 0.0 | 0.0 | 0.00 | 0.00 | 0.00 | 92 | 1011.3 |
| 20260510025602 | 60 | 181 | 0.0 | 0.0 | 0.00 | 0.00 | 0.00 | 92 | 1011.3 |
| 20260510025003 | 60 | 181 | 0.0 | 0.0 | 0.00 | 0.00 | 0.00 | 92 | 1011.2 |
| 20260510024511 | 60 | 181 | 0.0 | 0.0 | 0.00 | 0.00 | 0.00 | 92 | 1011.2 |
| 20260510024102 | 60 | 181 | 0.0 | 0.0 | 0.00 | 0.00 | 0.00 | 92 | 1011.2 |
| 20260510023503 | 60 | 181 | 0.0 | 0.0 | 0.00 | 0.00 | 0.00 | 91 | 1011.2 |
| 20260510023009 | 60 | 181 | 0.0 | 0.0 | 0.00 | 0.00 | 0.00 | 91 | 1011.1 |
| 20260510022603 | 60 | 181 | 0.0 | 0.0 | 0.00 | 0.00 | 0.00 | 91 | 1011.1 |
| 20260510022003 | 60 | 181 | 0.0 | 0.0 | 0.00 | 0.00 | 0.00 | 91 | 1011.0 |
| 20260510021513 | 61 | 181 | 0.0 | 0.0 | 0.00 | 0.00 | 0.00 | 91 | 1011.0 |
| 20260510021103 | 61 | 181 | 0.0 | 0.0 | 0.00 | 0.00 | 0.00 | 90 | 1010.9 |
| 20260510020502 | 61 | 181 | 0.0 | 0.0 | 0.00 | 0.00 | 0.00 | 90 | 1011.0 |
| 20260510020008 | 61 | 181 | 0.0 | 0.0 | 0.00 | 0.00 | 0.00 | 90 | 1010.9 |
| 20260510015604 | 61 | 181 | 0.0 | 0.0 | 0.00 | 0.00 | 0.00 | 90 | 1010.9 |
| 20260510015002 | 62 | 181 | 0.0 | 0.0 | 0.00 | 0.00 | 0.00 | 89 | 1010.8 |
| 20260510014508 | 62 | 181 | 0.0 | 0.0 | 0.00 | 0.00 | 0.00 | 88 | 1010.7 |
| 20260510014103 | 62 | 181 | 0.0 | 0.0 | 0.00 | 0.00 | 0.00 | 88 | 1010.7 |
| 20260510013503 | 62 | 181 | 0.0 | 0.0 | 0.00 | 0.00 | 0.00 | 88 | 1010.6 |
| 20260510013009 | 62 | 181 | 0.0 | 0.0 | 0.00 | 0.00 | 0.00 | 88 | 1010.5 |
| 20260510012602 | 63 | 181 | 0.0 | 0.0 | 0.00 | 0.00 | 0.00 | 87 | 1010.5 |
| 20260510012002 | 63 | 181 | 0.0 | 0.0 | 0.00 | 0.00 | 0.00 | 87 | 1010.4 |
| 20260510011510 | 63 | 181 | 0.0 | 0.0 | 0.00 | 0.00 | 0.00 | 87 | 1010.4 |
| 20260510011102 | 63 | 181 | 0.0 | 0.0 | 0.00 | 0.00 | 0.00 | 86 | 1010.4 |
| 20260510010503 | 64 | 181 | 0.0 | 0.0 | 0.00 | 0.00 | 0.00 | 86 | 1010.2 |
| 20260510010009 | 64 | 181 | 0.0 | 0.0 | 0.00 | 0.00 | 0.00 | 86 | 1010.0 |
| 20260510005603 | 64 | 181 | 0.0 | 0.0 | 0.00 | 0.00 | 0.00 | 85 | 1009.9 |
| 20260510005004 | 64 | 181 | 0.0 | 0.0 | 0.00 | 0.00 | 0.00 | 85 | 1009.7 |
| 20260510004509 | 64 | 181 | 0.0 | 0.0 | 0.00 | 0.00 | 0.00 | 84 | 1009.7 |
| 20260510004104 | 65 | 181 | 0.0 | 0.0 | 0.00 | 0.00 | 0.00 | 84 | 1009.6 |
| 20260510003503 | 65 | 181 | 0.0 | 0.0 | 0.00 | 0.00 | 0.00 | 84 | 1009.6 |
| 20260510003020 | 65 | 181 | 0.0 | 0.0 | 0.00 | 0.00 | 0.00 | 84 | 1009.5 |
| 20260510002604 | 66 | 181 | 0.0 | 0.0 | 0.00 | 0.00 | 0.00 | 83 | 1009.5 |
| 20260510002003 | 66 | 181 | 0.0 | 0.0 | 0.00 | 0.00 | 0.00 | 82 | 1009.6 |
| 20260510001508 | 67 | 181 | 0.0 | 0.0 | 0.00 | 0.00 | 0.00 | 81 | 1009.5 |
| 20260510001104 | 67 | 181 | 0.0 | 0.0 | 0.00 | 0.00 | 0.00 | 80 | 1009.3 |
| 20260510000503 | 67 | 181 | 0.0 | 0.0 | 0.00 | 0.00 | 0.00 | 79 | 1009.2 |
| 20260510000008 | 68 | 181 | 0.0 | 0.0 | 0.00 | 0.00 | 0.00 | 78 | 1009.2 |
| 20260509235602 | 68 | 181 | 0.0 | 0.0 | 0.00 | 0.00 | 0.00 | 77 | 1009.2 |
| 20260509235003 | 68 | 181 | 0.0 | 0.0 | 0.00 | 0.00 | 0.00 | 77 | 1009.2 |
| 20260509234513 | 68 | 181 | 0.0 | 0.0 | 0.00 | 0.00 | 0.00 | 77 | 1009.1 |
| 20260509234103 | 68 | 181 | 0.0 | 0.0 | 0.00 | 0.00 | 0.00 | 77 | 1009.1 |
| 20260509233503 | 69 | 169 | 0.0 | 0.0 | 0.00 | 0.00 | 0.00 | 77 | 1009.0 |
| 20260509233020 | 69 | 169 | 0.0 | 0.0 | 0.00 | 0.00 | 0.00 | 76 | 1009.0 |
| 20260509232605 | 69 | 169 | 0.0 | 0.0 | 0.00 | 0.00 | 0.00 | 76 | 1009.1 |
| 20260509232002 | 69 | 169 | 0.0 | 1.7 | 0.00 | 0.00 | 0.00 | 76 | 1009.1 |
| 20260509231508 | 69 | 179 | 0.0 | 0.0 | 0.00 | 0.00 | 0.00 | 76 | 1009.0 |
| 20260509231103 | 70 | 179 | 0.0 | 0.0 | 0.00 | 0.00 | 0.00 | 76 | 1008.8 |
| 20260509230503 | 70 | 176 | 0.0 | 0.0 | 0.00 | 0.00 | 0.00 | 75 | 1008.8 |
| 20260509230011 | 70 | 152 | 0.0 | 0.0 | 0.00 | 0.00 | 0.00 | 76 | 1008.9 |
| 20260509225604 | 70 | 185 | 0.0 | 0.0 | 0.00 | 0.00 | 0.00 | 76 | 1008.9 |
| 20260509225003 | 70 | 200 | 0.0 | 0.0 | 0.00 | 0.00 | 0.00 | 75 | 1008.9 |
| 20260509224508 | 70 | 183 | 0.0 | 2.6 | 0.00 | 0.00 | 0.00 | 73 | 1008.8 |
| 20260509224103 | 71 | 216 | 0.0 | 2.6 | 0.00 | 0.00 | 0.00 | 74 | 1008.7 |
| 20260509223503 | 71 | 222 | 0.0 | 0.0 | 0.00 | 0.00 | 0.00 | 73 | 1008.6 |
| 20260509223011 | 71 | 225 | 0.0 | 0.0 | 0.00 | 0.00 | 0.00 | 72 | 1008.6 |
| 20260509222602 | 71 | 161 | 0.0 | 0.0 | 0.00 | 0.00 | 0.00 | 73 | 1008.7 |
| 20260509222004 | 71 | 218 | 0.0 | 0.0 | 0.00 | 0.00 | 0.00 | 73 | 1008.4 |
| 20260509221512 | 71 | 218 | 0.0 | 0.0 | 0.00 | 0.00 | 0.00 | 71 | 1008.4 |
| 20260509221106 | 71 | 214 | 0.0 | 0.0 | 0.00 | 0.00 | 0.00 | 70 | 1008.4 |
| 20260509220502 | 72 | 200 | 0.0 | 0.9 | 0.00 | 0.00 | 0.00 | 70 | 1008.6 |
| 20260509220010 | 72 | 183 | 0.0 | 0.9 | 0.00 | 0.00 | 0.00 | 71 | 1008.7 |
| 20260509215602 | 72 | 167 | 0.0 | 0.0 | 0.00 | 0.00 | 0.00 | 71 | 1008.6 |
| 20260509215110 | 72 | 203 | 0.0 | 0.0 | 0.00 | 0.00 | 0.00 | 72 | 1008.6 |
| 20260509214508 | 72 | 169 | 0.0 | 0.0 | 0.00 | 0.00 | 0.00 | 70 | 1008.6 |
| 20260509214101 | 72 | 169 | 0.0 | 0.0 | 0.00 | 0.00 | 0.00 | 69 | 1008.5 |
| 20260509213502 | 72 | 202 | 0.0 | 7.8 | 0.00 | 0.00 | 0.00 | 69 | 1008.5 |
| 20260509213008 | 72 | 169 | 0.0 | 7.8 | 0.00 | 0.00 | 0.00 | 67 | 1008.5 |
| 20260509212606 | 73 | 131 | 0.9 | 7.8 | 0.00 | 0.00 | 0.00 | 67 | 1008.4 |
| 20260509212002 | 73 | 159 | 0.0 | 1.7 | 0.00 | 0.00 | 0.00 | 67 | 1008.4 |
| 20260509211508 | 73 | 228 | 0.0 | 4.3 | 0.00 | 0.00 | 0.00 | 66 | 1008.5 |
| 20260509211103 | 74 | 139 | 0.0 | 4.3 | 0.00 | 0.00 | 0.00 | 67 | 1008.4 |
| 20260509210505 | 74 | 169 | 0.0 | 5.2 | 0.00 | 0.00 | 0.00 | 66 | 1008.5 |
| 20260509210009 | 74 | 160 | 0.0 | 7.8 | 0.00 | 0.00 | 0.00 | 66 | 1008.3 |
| 20260509205605 | 74 | 207 | 0.0 | 7.8 | 0.00 | 0.00 | 0.00 | 65 | 1008.3 |
| 20260509205003 | 74 | 169 | 0.0 | 7.0 | 0.00 | 0.00 | 0.00 | 66 | 1008.3 |
| 20260509204508 | 74 | 144 | 0.0 | 4.3 | 0.00 | 0.00 | 0.00 | 66 | 1008.2 |
| 20260509204103 | 74 | 176 | 0.0 | 8.7 | 0.00 | 0.00 | 0.00 | 66 | 1008.2 |
| 20260509203503 | 74 | 189 | 0.0 | 8.7 | 0.00 | 0.00 | 0.00 | 67 | 1008.2 |
| 20260509203012 | 73 | 198 | 0.0 | 5.2 | 0.00 | 0.00 | 0.00 | 68 | 1008.4 |
| 20260509202604 | 73 | 181 | 0.9 | 5.2 | 0.00 | 0.00 | 0.00 | 66 | 1008.6 |
| 20260509202002 | 73 | 181 | 0.0 | 5.2 | 0.00 | 0.00 | 0.00 | 66 | 1008.6 |
| 20260509201509 | 73 | 149 | 0.0 | 0.9 | 0.00 | 0.00 | 0.00 | 68 | 1008.6 |
| 20260509201102 | 73 | 187 | 0.0 | 0.0 | 0.00 | 0.00 | 0.00 | 67 | 1008.5 |
| 20260509200502 | 73 | 235 | 0.0 | 5.2 | 0.00 | 0.00 | 0.00 | 67 | 1008.6 |
| 20260509200009 | 73 | 219 | 0.0 | 5.2 | 0.00 | 0.00 | 0.00 | 68 | 1008.6 |
| 20260509195603 | 73 | 199 | 0.0 | 0.9 | 0.00 | 0.00 | 0.00 | 69 | 1008.6 |
| 20260509195002 | 72 | 175 | 0.0 | 4.3 | 0.00 | 0.00 | 0.00 | 68 | 1008.6 |
| 20260509194508 | 71 | 193 | 0.0 | 4.3 | 0.00 | 0.00 | 0.00 | 71 | 1008.8 |
| 20260509194102 | 71 | 201 | 0.9 | 4.3 | 0.00 | 0.00 | 0.00 | 71 | 1008.7 |
| 20260509193502 | 72 | 164 | 1.7 | 4.3 | 0.00 | 0.00 | 0.00 | 70 | 1008.9 |
| 20260509193008 | 71 | 189 | 0.0 | 5.2 | 0.00 | 0.00 | 0.00 | 71 | 1009.0 |
| 20260509192605 | 71 | 160 | 0.0 | 5.2 | 0.00 | 0.00 | 0.00 | 74 | 1008.9 |
| 20260509192006 | 69 | 220 | 0.0 | 3.5 | 0.00 | 0.00 | 0.00 | 79 | 1009.1 |
| 20260509191509 | 69 | 228 | 0.0 | 7.0 | 0.00 | 0.00 | 0.00 | 79 | 1009.2 |
| 20260509191104 | 68 | 206 | 0.0 | 7.8 | 0.00 | 0.00 | 0.00 | 77 | 1009.2 |